EHI
0 0 0 0 0 0 0 0 0 0 0 0 0 0 0 0 0 0 0 0 0 0 0 0 0 0 0 0 0 0 0 0 0 0 0 0 0 0 0 0 0 0 0
0 0 0 0 0 0 0 0 0 0 0 0 0 0 0 0 0 0 0 0 0 0 0 0 0 0 0 0 0 0 0 0 0 0 0 0 0 0 0 0 0 0 0
0 0 0 0 0 0 0 0 0 0 0 0 0 0 0 0 0 0 0 0 0 0 0 0 0 0 0 0 0 0 0 0 0 0 0 0 0 0 0 0 0 0 0
0 0 0 0 0 0 0 0 0 0 0 0 0 0 0 0 0 0 0 0 0 0 0 0 0 0 0 0 0 0 0 0 0 0 0 0 0 0 0 0 0 0 0
0 0 0 0 0 0 0 0 0 0 0 0 0 0 0 0 0 0 0 0 0 0 0 0 0 0 0 0 0 0 0 0 0 0 0 0 0 0 0 0 0 0 0
0 0 0 0 0 0 0 0 0 0 0 0 0 0 0 0 0 0 0 0 0 0 0 0 0 0 0 0 0 0 0 0 0 0 0 0 0 0 0 0 0 0 0
0 0 0 0 0 0 0 0 0 0 0 0 0 0 0 0 0 0 0 0 0 0 0 0 0 0 0 0 0 0 0 0 0 0 0 0 0 0 0 0 0 0 0
0 0 0 0 0 0 0 0 0 0 0 0 0 0 0 0 0 0 0 0 0 0 0 0 0 0 0 0 0 0 0 0 0 0 0 0 0 0 0 0 0 0 0
0 0 0 0 0 0 0 0 0 0 0 0 0 0 0 0 0 0 0 0 0 0 0 0 0 0 0 0 0 0 0 0 0 0 0 0 0 0 0 0 0 0 0
0 0 0 0 0 0 0 0 0 0 0 0 0 0 0 0 0 0 0 0 0 0 0 0 0 0 0 0 0 0 0 0 0 0 0 0 0 0 0 0 0 0 0
0 0 0 0 0 0 0 0 0 0 0 0 0 0 0 0 0 0 0 0 0 0 0 0 0 0 0 0 0 0 0 0 0 0 0 0 0 0 0 0 0 0 0
0 0 0 0 0 0 0 0 0 0 0 0 0 0 0 0 0 0 0 0 0 0 0 0 0 0 0 0 0 0 0 0 0 0 0 0 0 0 0 0 0 0 0
0 0 0 0 0 0 0 0 0 0 0 0 0 0 0 0 0 0 0 0 0 0 0 0 0 0 0 0 0 0 0 0 0 0 0 0 0 0 0 0 0 0 0
0 0 0 0 0 0 0 0 0 0 0 0 0 0 0 0 0 0 0 0 0 0 0 0 0 0 0 0 0 0 0 0 0 0 0 0 0 0 0 0 0 0 0
0 0 0 0 0 0 0 0 0 0 0 0 0 0 0 0 0 0 0 0 0 0 0 0 0 0 0 0 0 0 0 0 0 0 0 0 0 0 0 0 0 0 0
0 0 0 0 0 0 0 0 0 0 0 0 0 0 0 0 0 0 0 0 0 0 0 0 0 0 0 0 0 0 0 0 0 0 0 0 0 0 0 0 0 0 0
0 0 0 0 0 0 0 0 0 0 0 0 0 0 0 0 0 0 0 0 0 0 0 0 0 0 0 0 0 0 0 0 0 0 0 0 0 0 0 0 0 0 0
0 0 0 0 0 0 0 0 0 0 0 0 0 0 0 0 0 0 0 0 0 0 0 0 0 0 0 0 0 0 0 0 0 0 0 0 0 0 0 0 0 0 0
0 0 0 0 0 0 0 0 0 0 0 0 0 0 0 0 0 0 0 0 0 0 0 0 0 0 0 0 0 0 0 0 0 0 0 0 0 0 0 0 0 0 0
0 0 0 0 0 0 0 0 0 0 0 0 0 0 0 0 0 0 0 0 0 0 0 0 0 0 0 0 0 0 0 0 0 0 0 0 0 0 0 0 0 0 0
0 0 0 0 0 0 0 0 0 0 0 0 0 0 0 0 0 0 0 0 0 0 0 0 0 0 0 0 0 0 0 0 0 0 0 0 0 0 0 0 0 0 0
0 0 0 0 0 0 0 0 0 0 0 0 0 0 0 0 0 0 0 0 0 0 0 0 0 0 0 0 0 0 0 0 0 0 0 0 0 0 0 0 0 0 0
0 0 0 0 0 0 0 0 0 0 0 0 0 0 0 0 0 0 0 0 0 0 0 0 0 0 0 0 0 0 0 0 0 0 0 0 0 0 0 0 0 0 0
0 0 0 0 0 0 0 0 0 0 0 0 0 0 0 0 0 0 0 0 0 0 0 0 0 0 0 0 0 0 0 0 0 0 0 0 0 0 0 0 0 0 0
0 0 0 0 0 0 0 0 0 0 0 0 0 0 0 0 0 0 0 0 0 0 0 0 0 0 0 0 0 0 0 0 0 0 0 0 0 0 0 0 0 0 0
0 0 0 0 0 0 0 0 0 0 0 0 0 0 0 0 0 0 0 0 0 0 0 0 0 0 0 0 0 0 0 0 0 0 0 0 0 0 0 0 0 0 0
Wind_Speed
10 14 17 16 15 13 13 13 12 12 12 11 12 12 12 12 12 13 13 13 13 14 14 15 15 15 16 16 16 16 16 17 17 17 17 17 17 17 17 17 14 13 18
14 16 17 16 15 14 13 13 12 12 12 12 11 11 12 12 12 12 12 13 13 13 14 14 14 15 15 15 15 15 16 16 16 15 14 14 16 16 17 17 16 12 16
16 16 17 16 15 14 13 13 13 12 12 12 11 11 11 11 12 12 12 12 13 13 13 13 13 14 15 14 14 15 15 15 14 13 12 10 12 16 16 15 15 15 15
16 15 15 16 15 14 14 14 13 12 12 12 11 11 11 11 11 11 12 12 12 12 12 12 12 13 13 13 13 14 14 13 13 10 9 10 10 14 14 14 14 14 14
16 14 15 17 15 15 14 14 13 12 12 12 11 11 11 11 11 11 11 11 11 11 11 11 12 12 12 12 12 13 12 12 10 9 9 9 9 12 13 13 13 13 13
16 15 16 16 16 15 14 14 13 13 12 11 11 11 11 10 10 10 10 10 10 11 11 11 11 11 11 11 11 11 11 10 6 8 8 8 8 10 11 11 11 11 11
16 14 16 16 16 15 15 14 14 13 12 11 11 11 11 10 10 9 9 9 9 9 10 10 10 10 10 10 10 10 10 8 6 6 6 6 8 9 9 9 9 9 9
15 14 15 17 15 15 15 14 13 13 13 12 11 11 11 10 9 9 8 8 8 8 8 9 9 9 9 9 9 9 8 6 5 6 5 6 8 8 8 7 7 7 7
14 13 13 15 15 15 15 14 13 13 12 12 11 11 10 9 8 8 7 7 7 7 7 7 7 7 7 7 7 7 6 4 4 4 5 4 8 9 8 7 6 6 6
13 13 13 13 14 14 13 14 13 12 12 12 11 11 10 9 8 7 6 6 5 5 5 4 5 5 5 5 5 5 3 3 4 3 3 4 8 9 9 8 7 7 7
13 13 13 13 13 12 12 13 13 12 12 11 11 11 9 6 6 6 5 5 4 3 3 2 3 4 2 2 2 2 3 3 4 3 3 5 8 10 10 10 9 9 9
16 16 13 13 13 12 9 10 9 9 10 9 8 9 6 5 4 3 6 5 3 2 2 2 2 1 3 0 2 3 2 3 3 3 2 5 9 10 11 11 11 11 11
16 15 14 13 13 12 9 8 6 6 6 7 8 9 6 5 4 3 3 4 4 4 3 2 3 2 2 2 3 3 4 4 3 3 3 4 9 11 11 12 12 12 12
15 16 15 15 13 12 10 8 7 6 6 6 7 8 6 4 4 4 3 3 2 2 2 2 2 3 4 4 5 5 5 4 4 4 4 5 9 11 12 13 13 13 13
15 16 16 16 14 13 11 8 8 8 8 8 7 8 8 5 5 4 3 3 3 3 3 3 4 4 4 5 5 6 6 7 7 6 4 5 8 10 11 12 13 13 13
15 16 16 17 16 14 11 10 8 8 7 7 7 8 9 6 5 4 4 4 3 3 3 4 4 4 4 4 6 7 7 8 7 8 7 6 6 8 10 11 11 11 12
15 15 16 17 16 15 13 12 9 8 8 7 7 8 8 7 6 5 4 4 4 3 4 4 4 4 5 5 7 7 7 8 8 8 7 6 5 4 5 7 8 9 10
13 14 16 13 16 16 13 12 9 8 8 7 6 7 8 8 7 6 5 4 3 3 3 4 4 5 5 5 6 6 6 6 9 8 7 6 4 4 2 3 6 7 8
13 14 15 16 17 16 14 11 9 8 8 6 6 6 7 8 7 6 4 3 3 3 3 3 4 4 5 5 6 6 7 7 7 7 6 5 3 3 3 1 3 5 7
12 14 15 16 16 15 12 9 7 7 6 6 6 6 7 6 7 6 4 4 4 3 3 4 4 4 4 5 6 7 7 7 6 5 4 3 2 3 3 4 4 3 6
11 14 15 16 16 13 10 9 8 7 6 5 5 7 7 7 7 6 4 4 4 4 4 4 3 4 4 3 5 6 6 5 4 3 3 3 3 3 4 5 5 6 5
12 14 15 15 15 15 11 10 8 7 5 5 5 5 6 7 6 5 5 4 4 3 4 3 3 3 3 2 4 5 5 3 1 3 4 5 5 4 5 6 7 8 8
12 13 12 15 15 15 13 9 7 6 4 5 6 5 5 6 6 6 5 4 4 4 3 3 3 4 4 2 3 4 4 4 5 4 5 5 6 6 7 7 9 9 9
11 11 12 14 14 14 14 12 14 10 8 8 7 6 6 6 6 6 5 5 4 3 3 3 3 3 4 3 3 4 5 5 5 6 4 5 6 8 9 8 9 9 9
10 10 11 13 13 14 14 14 14 11 8 7 7 8 7 6 6 6 5 5 4 3 4 4 4 4 3 4 4 4 5 5 7 6 8 8 7 7 7 9 9 9 9
10 10 11 12 13 13 14 14 14 13 11 11 10 9 7 5 5 6 6 5 5 4 4 4 4 4 4 5 5 5 5 5 5 6 8 10 10 8 9 8 8 8 7
Wind_Direction
163 160 159 157 154 151 145 136 129 123 117 113 104 96 90 87 83 78 73 69 67 65 65 65 65 62 62 61 60 58 57 55 53 50 50 53 54 54 52 46 44 49 46
156 159 159 157 156 155 150 139 131 127 121 116 109 101 92 87 83 79 75 71 69 67 65 64 64 64 63 62 61 60 59 57 54 50 49 53 54 53 52 49 47 47 47
154 156 159 159 158 155 149 139 133 127 123 117 111 105 97 90 85 81 77 73 70 68 66 65 64 64 64 62 62 61 59 56 52 50 52 50 54 52 50 49 48 46 45
155 158 160 157 158 155 148 142 136 129 126 119 113 108 101 94 88 84 81 77 74 72 70 68 65 65 64 63 63 61 58 53 48 45 50 45 49 51 48 46 45 44 43
157 160 153 159 159 153 147 144 140 135 129 123 117 111 105 99 92 87 83 80 78 76 73 70 67 66 65 63 64 62 56 49 46 50 50 44 47 48 46 44 41 40 40
159 160 154 163 160 154 150 147 145 140 134 128 124 117 111 105 98 93 88 85 82 79 75 73 69 65 64 63 62 60 55 43 40 51 44 35 37 40 42 40 37 36 36
160 160 157 166 162 158 154 151 149 145 139 136 132 126 118 110 105 101 95 91 86 81 76 74 71 68 64 62 60 58 52 38 38 47 38 32 26 22 31 31 27 26 27
160 161 158 166 165 163 160 155 153 150 147 144 141 135 124 118 114 110 103 95 89 83 79 75 71 68 64 61 58 56 49 23 38 41 35 30 13 4 15 18 15 13 13
164 165 164 168 169 167 164 160 159 157 153 150 146 140 130 126 122 116 111 103 95 88 82 76 71 68 62 57 53 50 43 10 6 33 21 19 357 346 353 356 355 351 349
171 173 171 174 172 171 168 164 163 161 159 156 150 141 135 135 133 128 129 118 110 103 94 82 71 66 58 49 43 38 15 281 15 13 7 13 341 334 337 338 336 331 327
181 181 178 178 176 175 171 165 166 164 164 160 155 145 150 153 148 150 125 135 139 130 118 94 74 70 62 91 52 360 280 335 357 346 350 355 326 326 328 328 325 321 318
186 186 184 183 179 177 172 171 175 172 169 173 165 163 166 162 155 146 143 174 173 162 161 107 80 157 258 309 139 237 300 324 317 324 343 331 318 319 320 320 318 316 313
187 187 189 187 183 180 177 178 175 173 172 175 173 171 172 168 166 182 181 180 192 200 204 178 224 267 302 322 311 306 317 312 306 312 314 320 311 312 313 313 311 309 308
189 191 193 189 187 186 182 180 179 175 175 175 178 177 177 182 191 192 208 199 206 219 235 244 268 280 285 289 293 301 301 298 303 307 310 305 304 307 308 307 307 306 306
195 193 195 194 191 188 187 182 184 184 183 181 181 185 188 193 198 197 211 211 219 229 237 252 261 271 278 286 287 292 296 296 298 298 293 285 296 302 304 305 306 306 307
199 195 194 196 194 191 190 187 186 189 187 187 186 192 193 195 198 203 213 218 224 235 250 261 271 279 283 285 288 288 291 294 291 294 295 291 277 293 304 306 308 310 311
200 196 194 196 195 194 194 192 189 189 189 190 190 193 193 195 201 207 219 222 225 233 245 256 267 272 276 280 283 290 294 292 293 292 295 297 297 286 300 313 318 320 321
200 197 194 192 196 195 194 193 192 192 191 192 190 192 196 196 200 207 217 224 221 225 240 251 265 269 275 282 291 296 290 290 289 295 295 293 299 306 297 345 336 337 336
203 197 192 191 194 194 193 192 191 190 191 189 188 192 195 197 200 206 217 221 213 223 236 245 260 275 286 292 295 294 292 291 296 293 292 295 294 298 307 346 313 326 333
201 196 191 189 192 189 188 187 185 185 183 185 186 190 191 191 195 201 204 209 211 223 233 242 258 268 287 297 297 291 289 292 290 290 292 280 271 289 293 306 297 297 307
193 192 188 186 187 184 182 183 183 185 180 180 182 184 188 187 189 194 199 206 211 228 238 247 259 267 274 298 295 296 288 277 286 279 275 283 284 289 287 295 300 312 305
189 188 185 184 184 184 185 184 184 177 174 169 167 180 183 185 185 189 198 201 206 220 226 232 248 272 279 286 299 307 307 282 221 267 284 286 288 285 288 292 301 304 303
186 185 183 182 183 185 181 172 156 150 151 167 172 172 176 179 179 181 190 193 195 211 223 227 237 256 271 263 274 293 302 309 321 281 276 281 283 287 291 298 298 300 299
181 179 181 180 181 182 179 180 178 181 181 183 174 167 166 173 171 172 177 184 190 203 210 213 225 243 258 265 256 254 269 290 292 301 282 276 285 291 293 295 297 298 295
171 173 176 176 179 180 184 186 186 187 180 167 163 164 165 166 170 172 176 181 186 195 203 205 216 231 246 261 265 263 261 262 258 271 289 296 291 283 288 293 293 292 294
167 169 171 173 177 179 184 186 189 183 172 166 170 170 170 166 170 174 177 182 188 193 200 211 223 234 246 254 260 260 262 263 265 265 278 291 295 296 295 288 285 287 290